Orbital Elements
Epoch 2021 Aug. 14.0 TT = JDT 2459440.5
T 2021 Aug. 18.76746 TT MPCW
q 1.5286316 (2000.0) P Q
n 0.13507053 Peri. 353.66656 +0.73187363 -0.63315512
a 3.7620882 Node 48.88590 +0.63896653 +0.50914187
e 0.5936747 Incl. 19.53655 +0.23681799 +0.58300013
P 7.30
From 264 observations 1977 Sept. 6-2014 Nov. 18, mean residual 0".8.
Nongravitational parameters A1 = +0.08, A2 = +0.0085.
|